#timestamp,LO_Frequency,Hit,StdDev 
1503032415.3,286046998.6,N,0.9
1503032435.2,286046998.1,N,0.9
1503032455.9,286047001.0,N,0.9
1503032475.7,286046999.8,N,0.9
1503032495.6,286047000.2,N,0.9
1503032515.4,286046999.7,N,0.9
1503032535.2,286047002.5,N,1.1
1503032555.1,286047002.5,N,1.2
1503032556.0,286047002.5,N,1.3
1503032575.8,286047002.0,N,1.4
1503032595.6,286047001.9,N,1.4
1503032615.5,286047002.5,N,1.5
1503032635.3,286047002.0,N,1.5
1503032655.1,286047001.8,N,1.5
1503032675.9,286047001.5,N,1.6
1503032695.7,286047002.0,N,1.6
1503032715.5,286047002.0,N,1.6
1503032735.4,286047001.8,N,1.6
1503032755.2,286047001.4,N,1.6
1503032775.0,286047001.7,N,1.6
1503032775.9,286047001.7,N,1.6
1503032795.8,286047001.8,N,1.5
1503032815.6,286047004.3,N,1.6
1503032835.4,286047003.5,N,1.7
1503032855.3,286047003.1,N,1.7
1503032875.1,286047003.9,N,1.7
1503032876.0,286047003.9,N,1.7
1503032895.8,286047003.9,N,1.7
1503032915.7,286047003.0,N,1.6
1503032935.5,286047004.4,N,1.5
1503032955.3,286047004.2,N,1.4
1503032975.2,286047003.0,N,1.2
1503032995.9,286047006.0,Y,0.0
1503033015.7,286047001.9,P,0.2
1503033035.6,286047001.6,P,0.3
1503033055.4,286047004.4,P,1.1
1503033075.2,286047003.7,Y,0.0
1503033095.1,286047002.3,P,0.1
1503033096.0,286047002.3,P,0.1
1503033115.8,286046999.9,N,1.1
1503033135.6,286046999.9,N,1.2
1503033155.5,286047000.1,N,1.2
1503033175.3,286047002.6,N,1.2
1503033195.1,286047002.8,N,1.2
1503033215.9,286047002.8,N,1.2
1503033235.7,286047001.6,N,1.2
1503033255.5,286047001.5,N,1.1
1503033275.4,286047001.5,N,1.1
1503033295.2,286047002.1,N,1.0
1503033315.0,286047001.5,N,1.0
1503033316.0,286047001.5,N,1.0
1503033335.8,286047001.5,N,0.9
1503033355.6,286047001.7,N,0.9
1503033375.5,286047004.0,Y,0.0
1503033395.3,286047000.5,P,0.6
1503033415.1,286046999.9,N,0.7
1503033435.9,286047000.9,N,0.6
1503033455.7,286047000.1,N,0.6
1503033475.5,286047000.0,N,0.6
1503033495.4,286047000.0,N,0.6
1503033515.2,286047000.4,N,0.6
1503033535.0,286047000.6,N,0.5
1503033535.9,286047000.6,N,0.5
1503033555.8,286047001.0,N,0.5
1503033575.6,286046999.9,N,0.5
1503033595.4,286047000.2,N,0.5
1503033615.3,286047002.7,Y,0.0
1503033635.1,286047000.0,P,0.2
1503033636.0,286047000.0,N,0.2
1503033655.8,286047000.3,N,0.2
1503033675.7,286047002.4,Y,0.0
1503033695.5,286046999.8,P,0.2
1503033715.3,286046999.8,N,0.2
1503033735.2,286047001.7,P,0.8
1503033755.0,286046999.7,N,0.8
1503033755.9,286046999.7,N,0.7
1503033775.8,286047002.7,Y,0.0
1503033795.6,286047000.0,P,0.1
1503033815.4,286047000.5,P,0.2
1503033835.3,286047000.5,N,0.2
1503033855.1,286047000.5,N,0.2
1503033856.0,286047000.5,N,0.2
1503033875.8,286047000.2,N,0.2
1503033895.7,286047000.6,N,0.2
1503033915.5,286047000.0,N,0.2
1503033935.3,286047000.0,N,0.2
1503033955.2,286047011.9,Y,0.0
1503033975.9,286047000.4,P,0.1
1503033995.7,286047000.5,P,0.1
1503034015.6,286047000.5,P,0.1
1503034035.4,286047000.9,Y,0.0
1503034055.2,286046998.5,P,1.0
1503034075.1,286047001.2,N,1.1
1503034076.0,286047001.2,N,1.1
1503034095.8,286047000.8,N,1.0
1503034115.6,286046998.1,N,1.3
1503034135.5,286047000.3,N,1.2
1503034155.3,286047000.4,N,1.1
1503034175.1,286047002.7,N,1.3
1503034195.9,286047002.7,N,1.4
1503034215.7,286047000.6,N,1.4
1503034235.5,286047001.1,N,1.3
1503034255.4,286047000.4,N,1.3
1503034275.2,286047000.8,N,1.2
1503034295.0,286047001.1,N,1.2
1503034295.9,286047001.1,N,1.1
1503034315.8,286047000.9,N,1.1
1503034335.6,286047000.1,N,1.1
1503034355.4,286047002.4,N,1.1
1503034375.3,286047002.6,N,1.2
1503034395.1,286047002.8,N,1.2
1503034415.8,286047000.4,N,1.2
1503034435.7,286047000.6,N,1.2
1503034455.5,286047000.0,N,1.2
1503034475.3,286047000.1,N,1.1
1503034495.2,286047002.6,N,1.2
1503034515.9,286047001.6,N,1.2
1503034535.7,286047001.7,N,1.1
1503034555.6,286047002.5,N,1.2
1503034575.4,286047001.9,N,1.1
1503034595.2,286046999.9,N,1.2
1503034615.1,286047002.2,N,1.1
1503034616.0,286047002.2,N,1.1
1503034635.8,286047001.5,N,1.1
1503034655.6,286047001.4,N,1.1
1503034675.5,286047004.3,Y,0.0
1503034695.3,286047002.6,P,0.7
1503034715.1,286046999.8,N,1.1
1503034735.9,286047000.3,N,1.1
1503034755.7,286047002.5,N,1.1
1503034775.5,286047002.8,N,1.2
1503034795.4,286046999.8,N,1.2
1503034815.2,286046999.7,N,1.3
1503034835.0,286047002.4,N,1.3
1503034835.9,286047002.4,N,1.3
1503034855.8,286047000.2,N,1.2
1503034875.6,286046999.9,N,1.2
1503034895.5,286047000.1,N,1.2
1503034915.3,286047002.4,N,1.2
1503034935.1,286047002.6,N,1.2
1503034955.9,286047002.2,N,1.2
1503034975.7,286047002.4,N,1.2
1503034995.5,286047002.0,N,1.2
1503035015.4,286047001.9,N,1.2
1503035035.2,286047002.0,N,1.1
1503035055.0,286047002.7,N,1.1
1503035055.9,286047002.7,N,1.1
1503035075.8,286047002.5,N,1.1
1503035095.6,286047000.2,N,1.2
1503035115.4,286047002.2,N,1.1
1503035135.3,286047001.9,N,1.1
1503035155.1,286047001.8,N,1.1
1503035156.0,286047001.8,N,1.1
1503035175.8,286047002.0,N,1.1
1503035195.7,286047002.4,N,1.0
1503035215.5,286047002.7,N,1.1
1503035235.3,286047000.0,N,1.1
1503035255.2,286047000.3,N,1.1
1503035275.9,286046999.7,N,1.1
1503035295.7,286047001.6,N,1.1
1503035315.6,286047002.2,N,1.1
1503035335.4,286047001.6,N,1.0
1503035355.2,286047001.9,N,1.0
1503035375.1,286047002.7,N,1.0
1503035376.0,286047002.7,N,1.0
1503035395.8,286047002.5,N,0.9
1503035415.6,286046999.7,N,1.0
1503035435.5,286682705.2,Y,0.0
1503035455.3,286046998.7,P,1.5
1503035475.1,286047001.1,N,1.3
1503035495.9,286046998.2,N,1.5
1503035515.7,286046998.6,N,1.5
1503035535.5,286046998.8,N,1.4
1503035555.4,286047000.7,N,1.3
1503035575.2,286047001.2,N,1.3
1503035595.0,286046998.8,N,1.3
1503035595.9,286046998.8,N,1.3
1503035615.8,286046998.6,N,1.3
1503035635.6,286046998.5,N,1.2
1503035655.4,286046998.5,N,1.2
1503035675.3,286047000.8,N,1.2
1503035695.1,286047001.0,N,1.2
1503035715.8,286046999.9,N,1.2
1503035735.7,286047000.0,N,1.2
1503035755.5,286047000.6,N,1.2
1503035775.3,286047000.7,N,1.2
1503035795.2,286047000.0,N,1.1
1503035815.0,286047000.3,N,1.1
1503035815.9,286047000.3,N,1.1
1503035835.7,286047002.8,N,1.2
1503035855.6,286047011.9,Y,0.0
1503035875.4,286047000.0,P,0.0
1503035895.3,286047000.9,P,0.4
1503035915.1,286047001.0,N,0.5
1503035916.0,286047001.0,N,0.5
1503035935.8,286047000.4,N,0.5
1503035955.7,286046999.9,N,0.5
1503035975.5,286046999.8,N,0.5
1503035995.3,286047001.1,N,0.5
